Location: ????????
(55.4000°N, 39.1167°E)
Time: 18:07:22
(UTC+00:00)

Cosmos 2333 - Pass Details

Date: 19 May 2025
Orbit: 830 x 863 km, 70.9° (Epoch: 20 June)

Event Time Altitude Azimuth Distance (km) Brightness Sun altitude
Rises 20:38:39 0° 325° (NW) 3,427 8.6 -14.1°
Reaches altitude 10° 20:41:09 10° 328° (NNW) 2,482 7.8 -14.2°
Maximum altitude 20:46:51 73° 53° (NE) 885 4.4 -14.3°
Enters shadow 20:51:40 14° 137° (SE) 2,151 5.8 -14.4°
